TimeEST,TemperatureF,Dew PointF,Humidity,Sea Level PressureIn,VisibilityMPH,Wind Direction,Wind SpeedMPH,Gust SpeedMPH,PrecipitationIn,Events,Conditions,WindDirDegrees,DateUTC
12:54 AM,51.1,44.1,77,30.19,10.0,SW,16.1,-,N/A,,Overcast,230,2011-11-20 05:54:00
1:54 AM,51.1,45.0,80,30.17,10.0,SW,12.7,-,N/A,,Mostly Cloudy,230,2011-11-20 06:54:00
2:54 AM,53.1,42.1,66,30.14,10.0,SW,23.0,28.8,N/A,,Mostly Cloudy,230,2011-11-20 07:54:00
3:54 AM,52.0,39.0,61,30.12,10.0,SW,23.0,29.9,N/A,,Scattered Clouds,230,2011-11-20 08:54:00
4:54 AM,51.1,39.9,66,30.11,10.0,SW,16.1,-,N/A,,Scattered Clouds,220,2011-11-20 09:54:00
5:54 AM,51.1,42.1,71,30.09,10.0,SW,17.3,-,N/A,,Mostly Cloudy,220,2011-11-20 10:54:00
6:54 AM,51.1,43.0,74,30.08,10.0,SW,15.0,-,N/A,,Scattered Clouds,220,2011-11-20 11:54:00
7:54 AM,52.0,44.1,74,30.07,10.0,SW,16.1,24.2,N/A,,Scattered Clouds,220,2011-11-20 12:54:00
8:54 AM,55.0,45.0,69,30.05,10.0,SW,17.3,-,N/A,,Mostly Cloudy,220,2011-11-20 13:54:00
9:54 AM,57.9,44.1,60,30.04,10.0,WSW,18.4,29.9,N/A,,Mostly Cloudy,240,2011-11-20 14:54:00
10:54 AM,60.1,44.1,55,30.02,10.0,SW,21.9,29.9,N/A,,Partly Cloudy,230,2011-11-20 15:54:00
11:54 AM,63.0,44.1,50,29.99,10.0,WSW,18.4,27.6,N/A,,Overcast,250,2011-11-20 16:54:00
12:54 PM,64.9,45.0,48,29.97,10.0,SW,16.1,-,N/A,,Overcast,230,2011-11-20 17:54:00
1:54 PM,66.0,45.0,47,29.97,10.0,West,18.4,-,N/A,,Mostly Cloudy,260,2011-11-20 18:54:00
2:54 PM,64.9,45.0,48,29.97,10.0,WSW,15.0,20.7,N/A,,Mostly Cloudy,240,2011-11-20 19:54:00
3:54 PM,63.0,45.0,52,29.99,10.0,SW,12.7,-,N/A,,Mostly Cloudy,230,2011-11-20 20:54:00
4:54 PM,61.0,45.0,56,30.01,10.0,SW,9.2,-,N/A,,Mostly Cloudy,220,2011-11-20 21:54:00
5:54 PM,59.0,46.0,62,30.02,10.0,SW,10.4,-,N/A,,Overcast,220,2011-11-20 22:54:00
6:54 PM,59.0,46.0,62,30.02,10.0,SW,12.7,-,N/A,,Overcast,220,2011-11-20 23:54:00
7:54 PM,57.9,45.0,62,30.02,10.0,SW,15.0,-,N/A,,Overcast,230,2011-11-21 00:54:00
8:54 PM,57.9,45.0,62,30.04,10.0,WSW,16.1,23.0,N/A,,Overcast,240,2011-11-21 01:54:00
9:54 PM,59.0,46.0,62,30.06,10.0,West,10.4,-,N/A,,Overcast,260,2011-11-21 02:54:00
10:54 PM,59.0,45.0,60,30.06,10.0,West,9.2,-,N/A,,Mostly Cloudy,280,2011-11-21 03:54:00
11:54 PM,57.9,44.1,60,30.07,10.0,West,6.9,-,N/A,,Mostly Cloudy,280,2011-11-21 04:54:00